Wind_Speed
46 48 50 51 52 53 53 52 51 50 49 48 49 49 50 50 49 49 48 47 46 46 46 46 46 46 46 47 49 52 55 58 60 62 66 70 68 65 63 60 57 55 55 54 55 55 57 58 60 62 64 66 68 69 70 70 71 71 71 71 70 71 72 74 75 75 73 69 66 65 63 63 62 62 61 59 57 55 54 52 51 50 48 47 46 46 45 43
44 45 48 50 52 54 55 55 55 54 52 51 50 50 50 51 51 51 50 49 48 48 48 47 46 46 47 47 48 49 51 54 57 61 65 68 66 66 65 62 60 59 57 56 55 55 55 55 56 58 59 61 64 65 66 67 68 69 69 69 69 71 72 74 75 75 72 68 66 65 64 64 63 63 62 60 58 56 55 53 52 51 49 48 47 46 46 45
46 45 46 47 49 51 53 55 56 56 56 55 54 52 51 51 52 52 52 51 50 50 49 48 47 47 47 48 48 48 49 51 55 59 63 65 66 66 66 64 62 61 59 57 56 54 53 53 54 54 55 57 59 61 62 63 65 65 66 67 68 70 72 74 74 72 70 67 66 65 65 65 64 63 62 61 59 57 56 55 54 52 50 49 48 48 47 46
50 48 47 47 48 49 51 52 53 54 56 56 57 56 55 54 53 53 53 53 53 52 51 50 49 48 48 48 48 48 49 50 52 57 61 63 64 65 65 65 64 63 61 59 57 55 53 52 52 52 53 54 55 57 58 60 62 62 63 65 66 68 70 71 70 69 67 65 65 65 65 65 64 63 63 61 59 58 57 56 54 53 51 49 49 48 47 45
54 53 52 51 50 50 51 51 51 52 53 54 55 56 57 57 56 55 55 55 55 54 53 52 51 50 50 49 48 48 50 50 50 54 58 60 62 63 64 65 66 65 63 61 58 56 54 53 52 51 51 51 52 53 54 57 58 59 61 62 64 67 67 67 66 66 65 63 63 64 64 64 64 64 63 62 60 58 58 56 54 53 51 49 48 48 47 46
58 58 57 56 55 53 53 53 53 53 53 53 53 54 55 56 58 58 57 57 56 56 56 54 53 52 52 51 49 49 50 50 51 54 55 57 60 61 63 65 66 66 65 62 60 58 56 55 53 52 51 50 50 51 51 53 54 56 58 60 62 64 63 62 62 62 61 61 61 61 63 63 64 63 63 62 59 58 57 56 54 52 50 49 48 49 49 48
62 61 61 61 60 59 57 57 56 55 55 55 55 55 54 54 56 58 59 60 59 58 57 57 55 54 54 53 51 50 50 51 53 54 54 55 57 59 61 63 66 66 65 64 62 61 59 58 56 54 52 51 50 49 48 49 50 52 56 58 60 60 59 59 59 58 58 58 58 59 60 62 63 63 62 61 60 59 57 56 54 52 50 49 50 50 50 49
65 65 64 64 64 64 62 62 60 59 58 58 57 57 57 56 56 56 58 60 61 61 59 59 58 57 56 54 53 51 51 53 54 55 54 54 55 57 59 61 63 65 65 65 64 63 61 60 58 56 54 52 51 49 47 47 47 50 54 56 57 58 57 56 55 55 55 54 55 56 58 60 61 61 61 60 59 59 57 56 54 52 51 51 51 50 50 49
66 66 66 67 67 67 67 66 65 64 63 61 60 59 59 59 59 58 57 59 61 63 63 61 60 60 59 56 55 53 54 56 54 54 54 54 54 55 57 59 60 63 64 65 65 64 62 61 60 58 56 54 53 50 47 46 45 48 51 52 54 55 54 53 53 53 53 52 52 53 55 57 58 59 60 59 59 58 57 56 54 52 52 52 51 51 50 49
63 65 67 68 68 69 69 69 69 68 68 66 65 63 62 61 61 61 60 59 60 63 65 64 62 62 61 59 56 55 58 59 54 54 55 55 55 55 56 57 58 61 63 64 65 65 64 64 63 60 57 55 54 51 49 47 46 48 48 48 50 51 51 51 52 52 51 50 51 52 52 54 56 57 57 58 57 57 56 55 54 53 53 53 52 51 50 49
62 63 65 67 69 70 71 72 72 72 71 71 70 68 66 64 64 64 63 62 60 62 65 66 66 64 63 61 58 59 62 60 56 55 55 56 56 55 55 56 57 59 61 63 64 65 66 66 63 61 58 56 55 52 51 49 49 49 47 47 48 48 48 50 51 51 50 50 49 50 51 52 54 54 55 56 56 56 56 55 54 53 54 53 53 52 51 50
65 65 66 67 69 71 73 74 75 75 75 75 74 73 71 68 67 66 66 65 63 63 64 66 68 67 65 62 61 64 64 61 59 57 56 57 58 56 55 55 56 58 60 61 63 65 65 65 63 62 59 57 56 54 52 51 51 51 48 47 46 45 46 48 50 50 50 49 49 49 49 50 52 52 53 54 55 55 55 55 54 55 55 54 54 52 51 50
69 69 70 70 71 72 74 76 78 78 78 78 77 76 74 73 71 69 68 68 66 65 65 66 68 70 67 63 66 69 65 62 62 59 57 58 58 58 56 54 55 57 59 60 61 63 63 63 63 62 60 59 57 54 54 54 53 53 51 49 45 44 44 46 48 49 49 49 48 48 48 49 51 51 52 53 53 54 55 55 56 56 56 55 54 53 52 51
73 73 73 74 75 75 76 78 79 80 80 80 80 79 78 77 75 73 71 71 69 67 67 67 67 70 69 66 71 72 66 66 65 62 59 58 58 58 57 55 55 56 58 59 59 60 61 61 61 60 60 59 57 56 56 56 55 54 52 50 47 45 44 44 46 47 48 48 47 47 47 48 49 49 50 50 50 51 52 54 56 56 56 55 54 53 52 51
76 76 77 78 78 79 80 80 81 82 82 83 82 82 81 80 79 77 74 73 72 70 70 70 68 69 69 71 76 74 70 70 67 63 60 58 58 58 58 57 56 56 58 58 58 59 59 59 59 59 59 58 57 57 57 57 56 54 53 51 48 47 45 43 44 46 47 47 47 48 47 47 47 47 47 47 47 47 49 53 55 55 55 54 54 53 52 50
80 80 80 81 81 82 83 84 84 85 85 85 85 84 84 83 82 80 79 76 75 74 73 72 70 70 69 74 80 76 72 72 69 64 61 60 60 58 60 59 57 57 57 57 58 58 57 58 58 58 58 58 58 57 57 57 56 54 54 51 50 49 46 45 45 45 46 47 48 48 48 46 45 44 45 48 49 50 51 53 54 53 53 53 53 52 51 49
83 83 83 83 84 85 86 87 87 88 88 88 88 88 87 86 85 84 83 80 78 77 76 74 72 71 71 76 82 79 74 73 71 66 63 63 62 60 60 60 59 57 56 57 58 58 57 57 57 58 58 57 57 56 55 56 54 54 54 52 52 52 49 47 46 45 45 46 48 49 48 46 44 44 45 47 51 53 54 53 49 46 48 51 51 51 50 48
86 85 85 86 87 88 88 89 90 90 91 92 92 92 91 90 89 88 87 84 81 80 79 76 74 74 74 77 82 81 77 75 73 69 66 65 64 62 61 61 61 59 57 57 57 58 57 56 57 58 57 55 54 54 53 53 53 54 54 54 55 54 52 49 46 45 44 45 47 48 48 46 45 46 46 47 49 51 52 51 45 40 43 49 50 48 49 48
87 86 87 87 88 89 91 92 92 93 93 95 95 94 94 94 93 92 90 88 84 81 81 79 77 78 78 78 81 83 81 77 75 72 68 66 65 63 62 61 61 60 58 57 57 57 58 58 57 55 53 53 52 52 53 52 53 55 56 57 57 56 53 50 46 45 44 44 46 48 48 47 47 47 47 48 48 47 49 49 48 44 41 44 48 47 45 44
84 84 84 85 87 88 90 91 93 93 94 95 95 94 95 95 95 94 92 90 86 84 83 82 82 81 81 81 82 83 84 80 77 74 71 68 66 65 63 61 61 61 59 57 57 57 58 59 56 52 52 52 52 53 53 54 55 57 57 57 57 55 53 49 48 47 45 45 46 47 48 48 48 49 48 48 46 46 48 49 50 48 43 38 37 36 35 35
79 79 79 80 82 83 85 86 88 90 91 92 93 92 93 93 93 93 92 91 88 87 86 85 85 84 83 84 84 84 84 83 79 76 73 71 69 67 64 61 60 60 60 58 57 57 58 57 56 55 55 54 55 56 56 57 57 57 56 56 56 55 52 50 49 48 46 46 45 46 48 48 49 49 49 48 46 45 47 49 51 50 48 40 28 24 29 29
73 73 73 74 75 76 77 79 80 81 84 86 87 87 88 87 87 88 88 88 87 87 87 87 87 86 86 87 87 85 84 84 82 78 75 73 70 67 65 62 59 60 61 59 56 56 56 55 57 58 56 57 58 58 58 58 57 57 56 56 56 55 52 51 51 49 48 46 45 46 47 48 49 50 50 49 47 45 45 47 49 50 51 48 37 31 35 36
67 67 68 68 69 69 70 70 71 72 75 77 78 79 80 80 80 81 83 83 84 85 86 88 89 88 89 89 88 86 84 85 84 80 77 74 71 69 67 64 60 60 61 58 56 56 55 55 57 58 59 60 59 58 58 57 57 57 56 56 56 54 53 53 52 50 49 47 46 46 46 47 49 50 50 49 48 47 46 46 49 51 53 53 48 40 37 40
62 63 63 63 63 64 63 63 64 65 66 67 68 70 71 72 72 73 75 77 79 82 85 88 89 89 91 91 89 86 85 86 86 82 78 76 73 70 67 65 63 60 59 60 59 56 56 56 56 59 63 63 60 59 58 57 57 56 56 56 55 54 54 52 50 51 51 49 47 47 46 46 47 48 49 50 49 49 48 47 48 51 54 54 52 45 39 40
58 60 60 60 60 60 59 59 59 60 60 61 61 62 63 64 64 65 68 70 72 76 82 86 87 90 92 91 88 87 86 86 85 82 79 77 74 71 69 67 64 60 60 62 61 59 57 55 58 62 63 63 62 61 59 59 58 57 56 56 55 55 53 51 51 52 53 51 50 47 46 45 45 47 48 50 50 50 50 48 48 50 53 55 55 50 44 42
56 57 56 56 57 56 55 54 54 54 55 56 56 57 59 59 59 60 63 64 65 70 76 81 85 90 91 90 89 89 87 86 85 84 80 78 76 73 71 68 64 61 61 62 63 61 57 56 60 62 61 63 64 62 61 61 60 59 58 58 57 55 54 52 52 53 53 52 50 48 47 45 44 45 46 48 50 50 50 48 47 49 50 53 56 57 53 48
52 52 51 51 50 49 48 48 47 47 48 49 49 51 54 55 55 58 60 60 61 65 70 75 81 86 88 89 91 91 88 86 86 85 81 79 77 75 71 68 66 63 61 62 63 61 56 58 60 60 60 61 62 63 63 62 61 60 60 59 57 56 55 54 54 53 52 51 50 50 49 46 43 43 44 46 49 49 49 48 47 47 48 50 53 57 58 57
47 46 46 45 43 42 42 41 41 41 41 42 43 45 47 50 51 54 58 58 59 65 70 73 78 82 86 89 91 90 88 87 86 84 83 81 79 76 73 70 67 64 61 61 63 60 58 59 59 59 59 59 60 62 63 64 63 62 62 61 59 57 55 55 55 53 51 50 52 52 50 46 43 43 43 45 46 47 47 48 47 47 48 48 49 51 55 59
43 42 41 40 38 36 37 37 36 36 37 37 39 41 43 45 47 51 55 56 61 68 71 72 75 80 84 87 88 88 89 89 87 85 84 82 79 77 74 71 68 65 63 63 63 62 61 60 59 59 60 59 59 61 63 66 65 64 65 64 61 58 56 55 54 52 50 51 51 51 49 47 45 44 43 42 43 44 46 47 48 48 47 47 47 49 51 54
39 37 36 34 32 31 31 31 31 32 33 35 37 39 41 42 44 47 50 55 62 68 70 71 74 78 81 83 85 87 89 88 85 85 85 83 81 78 75 72 69 67 65 65 63 63 63 62 60 60 60 60 60 62 65 66 65 67 68 65 62 59 57 55 54 52 51 50 50 49 49 49 47 45 43 42 42 44 47 48 47 47 47 48 49 50 50 51
35 33 31 29 27 26 26 27 27 28 30 32 35 37 39 41 42 44 48 55 61 67 69 71 74 77 79 81 84 87 87 85 83 84 84 82 81 79 76 73 71 69 68 64 61 62 65 64 61 59 59 59 60 62 64 64 65 68 67 65 62 59 57 55 54 52 50 49 49 48 49 49 47 46 44 43 44 46 47 47 46 47 49 51 51 51 50 49
32 31 29 28 26 25 24 23 23 24 27 30 32 35 37 39 41 45 50 55 60 65 69 71 74 77 79 80 84 86 85 83 83 83 82 80 78 76 74 71 69 67 64 61 59 62 66 64 61 59 59 60 60 60 60 60 63 66 66 64 61 59 57 54 51 49 48 49 47 46 47 47 46 46 46 45 46 46 46 45 46 49 51 52 51 50 49 48
31 30 28 26 25 23 21 20 19 20 23 27 31 35 38 41 44 48 51 54 59 64 68 71 75 78 79 81 82 83 83 82 83 83 81 79 78 76 74 72 69 65 63 60 59 64 66 63 60 59 58 59 59 57 56 56 58 60 62 62 61 60 56 52 49 48 48 47 44 44 45 45 45 46 46 49 49 47 45 46 47 49 51 50 50 49 47 46
29 27 25 22 21 20 18 16 16 17 21 26 31 35 39 43 46 49 52 55 57 60 65 71 75 78 79 80 81 80 80 81 83 83 81 79 78 76 75 72 69 66 65 62 60 62 63 60 59 58 56 56 56 55 54 55 56 58 60 62 62 61 57 54 52 50 49 46 43 45 45 44 44 44 47 52 51 48 47 47 48 49 48 48 49 49 47 46
26 23 20 17 15 15 15 14 14 16 20 26 32 36 39 43 46 50 54 54 54 57 63 69 74 78 79 80 80 79 79 79 81 82 80 78 76 75 72 70 67 65 63 60 59 61 61 59 59 57 54 54 54 54 54 54 56 58 59 61 62 62 60 58 56 53 51 48 47 48 45 43 43 43 48 53 52 51 50 48 48 47 46 47 49 49 47 46
21 18 15 13 12 11 11 12 13 16 21 25 31 37 40 42 45 49 50 50 51 56 62 68 73 77 79 79 79 78 78 78 79 79 78 78 77 75 72 70 67 64 61 60 59 62 62 61 60 58 55 55 54 54 54 55 55 55 55 57 59 60 60 59 57 55 53 50 49 49 46 45 45 45 49 52 52 53 52 50 49 47 46 47 47 48 48 47
17 15 13 11 9 8 8 9 12 15 21 26 31 35 40 43 46 47 46 47 51 56 61 67 73 76 78 78 78 77 78 78 78 77 77 78 77 76 74 71 67 64 62 60 59 61 62 60 59 59 58 57 56 55 56 55 53 52 53 54 54 56 59 61 60 58 55 52 50 49 48 47 47 47 49 51 51 53 53 52 51 48 47 46 47 49 49 48
16 15 13 10 7 5 6 8 11 14 20 26 31 35 39 42 43 42 43 46 50 54 59 66 71 73 75 76 77 77 78 78 78 77 77 77 75 74 72 69 66 64 63 61 60 61 61 60 61 61 59 58 57 57 56 53 50 51 52 52 53 55 58 61 61 58 57 53 50 50 50 48 47 48 50 51 52 53 54 53 52 50 48 47 48 50 49 48
16 15 12 8 4 1 4 7 10 14 19 24 30 34 36 37 37 39 42 45 48 51 56 62 67 71 73 74 76 77 78 78 76 75 75 75 74 73 71 69 68 65 63 62 61 61 62 62 63 62 61 59 58 56 54 50 49 50 50 50 52 54 56 58 59 59 59 56 53 53 52 49 48 50 52 52 53 53 53 53 52 51 49 49 50 49 48 47
16 14 10 6 2 3 6 8 10 13 17 22 26 30 32 32 34 37 40 43 44 47 52 58 63 67 70 73 76 77 78 78 76 75 74 73 73 72 71 69 67 64 63 62 61 61 62 62 62 62 60 58 55 53 51 50 49 49 47 47 49 50 51 54 57 59 60 58 56 55 54 52 52 54 55 53 52 52 51 52 52 51 51 50 49 48 47 47
16 12 8 6 3 5 8 10 12 15 18 22 26 30 32 32 34 37 40 41 42 44 49 55 60 63 67 72 75 76 77 78 77 75 74 72 72 71 69 67 64 63 62 61 60 61 63 62 61 60 58 56 54 52 51 50 49 49 48 49 49 48 49 51 54 57 59 59 58 57 56 55 55 56 56 54 52 50 50 51 51 51 51 50 48 47 46 45
15 11 9 7 6 8 10 11 14 16 20 24 28 33 35 36 37 39 40 41 41 42 46 51 57 61 65 69 72 74 76 77 77 76 74 72 71 70 68 66 63 62 61 60 60 61 62 62 60 59 57 55 52 50 50 50 50 50 50 50 50 50 50 51 53 55 58 59 58 58 57 57 58 58 57 54 52 50 49 50 51 52 52 50 48 47 46 45
14 13 11 9 9 12 13 14 17 19 23 27 31 35 37 38 39 39 39 40 41 41 43 48 53 58 62 66 69 72 74 76 76 76 75 73 71 69 67 65 63 62 61 60 60 60 60 60 59 59 57 55 53 53 52 51 50 49 48 49 49 49 51 53 54 55 57 59 60 60 60 59 59 59 58 55 52 50 49 49 51 51 51 50 49 48 47 45
15 15 13 12 13 15 16 18 21 24 28 32 35 38 39 39 39 39 39 39 40 40 41 45 50 55 59 63 66 69 71 73 74 75 74 73 71 69 67 65 63 62 60 59 59 59 60 59 58 57 56 54 52 51 49 47 46 46 46 48 48 48 49 51 51 53 55 58 60 61 62 61 60 60 59 56 53 51 49 49 50 51 51 51 50 49 47 46
15 15 14 14 15 17 19 22 24 27 30 33 36 38 39 40 40 40 40 40 39 39 41 45 50 54 57 60 63 65 68 69 71 72 72 71 69 67 65 63 62 61 59 60 61 61 60 58 56 55 53 50 48 45 43 42 42 43 44 45 46 46 48 48 49 51 53 55 58 61 62 62 60 60 59 56 54 52 51 50 50 50 51 51 50 49 48 46
16 16 15 16 17 18 21 24 26 29 32 35 37 39 39 40 40 40 40 39 39 40 42 46 50 53 55 58 60 62 64 66 67 68 68 68 66 64 63 61 60 60 60 62 63 62 60 58 57 55 52 51 49 46 44 42 42 42 42 44 45 46 47 48 48 49 51 53 56 59 61 61 60 60 59 57 55 54 53 51 51 50 50 50 49 48 47 44
17 16 16 17 18 19 22 26 28 31 34 36 38 39 40 40 40 39 39 39 40 41 44 47 50 52 53 55 57 59 61 63 64 64 65 65 64 62 61 59 59 59 60 61 60 60 58 57 56 54 53 52 49 47 46 46 45 45 44 45 45 45 45 46 46 48 50 51 53 55 58 60 60 59 59 57 55 54 54 53 52 51 49 49 48 47 46 44
18 18 18 18 19 21 24 27 29 32 34 36 38 39 39 39 39 39 39 40 42 44 46 48 50 51 52 54 56 57 59 60 60 61 62 62 61 60 59 58 58 58 57 57 56 55 55 54 53 52 51 50 48 48 48 48 48 47 47 46 46 45 44 44 44 46 47 49 51 53 55 57 59 59 58 57 55 54 54 53 52 50 49 48 47 46 45 44
21 20 20 21 21 22 24 27 29 31 33 35 37 38 39 39 40 40 41 42 43 45 47 48 49 50 52 53 55 56 56 57 57 58 58 58 58 57 57 56 56 55 54 53 53 52 52 52 52 51 49 48 48 48 47 47 47 47 47 47 46 45 45 45 46 46 47 48 50 51 52 54 57 57 57 56 55 53 52 52 51 49 48 47 47 46 45 44
25 24 24 26 26 26 26 28 30 32 33 34 35 37 39 40 41 42 42 43 44 45 46 48 49 50 51 52 54 55 55 56 56 56 56 56 56 56 55 55 54 53 52 52 51 51 51 51 50 49 48 47 47 47 46 46 47 47 47 47 46 45 45 45 47 48 48 49 49 49 51 52 53 54 54 54 54 54 52 51 50 50 49 48 47 46 45 44
28 28 28 29 30 30 30 30 32 34 35 35 36 37 38 40 41 42 43 43 44 44 44 46 47 48 49 51 52 53 54 54 55 55 55 55 55 55 55 55 54 54 53 52 52 52 51 50 49 48 47 47 47 47 47 46 47 48 47 46 45 44 44 44 45 47 49 51 51 50 50 50 51 51 52 52 53 54 53 52 51 50 50 49 48 47 45 44
30 30 30 30 31 31 31 31 31 33 35 36 37 37 37 38 40 41 42 42 44 44 44 45 46 47 47 48 49 50 51 51 52 52 53 54 54 55 55 54 54 54 54 54 54 52 51 50 50 49 48 47 47 48 47 48 48 47 46 45 44 44 43 43 44 46 49 51 53 52 50 50 51 51 51 51 52 53 54 54 53 52 51 50 48 48 46 46
Wind_Direction
273 271 270 269 269 268 268 266 265 264 261 260 259 258 258 258 257 256 255 254 253 252 251 250 250 250 249 247 246 244 241 239 238 237 238 238 238 238 238 236 236 237 238 238 238 237 237 237 237 238 238 239 239 239 240 240 240 241 241 241 241 240 241 241 242 243 243 244 244 244 245 246 246 247 248 249 250 251 251 252 253 254 256 258 258 258 258 259
277 274 271 269 268 267 266 266 265 263 262 260 258 257 257 256 256 255 254 254 253 252 251 250 249 249 249 248 246 245 243 240 238 237 237 237 237 237 237 235 234 235 235 236 237 236 237 237 237 237 237 238 238 239 239 239 240 240 240 240 240 240 240 241 242 242 243 243 243 244 244 245 245 246 247 248 249 249 250 251 251 252 253 254 256 257 258 259
279 277 275 271 269 267 266 266 265 263 262 261 259 257 255 255 255 254 253 253 252 251 251 249 248 248 248 248 247 245 244 242 239 238 237 237 236 236 236 235 234 234 234 235 236 236 236 236 236 236 236 237 238 238 238 239 239 239 240 240 240 240 240 241 242 242 243 243 243 243 243 243 244 245 246 246 247 248 249 249 249 250 251 253 255 257 258 260
278 277 276 273 270 268 267 266 265 264 263 261 260 258 256 254 253 253 252 252 251 250 249 249 248 247 247 247 246 245 244 242 240 239 238 236 235 235 235 235 234 234 234 234 235 235 236 236 236 236 236 236 237 237 237 238 238 238 239 239 240 240 241 241 242 243 243 243 242 242 242 243 243 244 245 245 246 247 247 248 248 249 250 252 254 256 257 258
276 275 274 273 270 268 266 264 264 263 263 262 260 259 257 255 253 252 251 251 250 249 249 248 247 247 246 246 246 245 244 242 242 241 239 237 235 234 234 234 234 234 233 233 233 234 235 235 235 235 235 235 236 236 236 237 237 237 238 239 240 240 241 242 242 243 243 242 242 242 242 242 242 242 243 243 244 246 247 247 247 248 249 249 251 252 253 254
276 274 273 271 270 268 266 264 262 260 260 260 259 259 258 256 254 252 250 250 249 249 248 247 246 246 245 245 244 244 244 243 242 241 239 237 236 234 233 233 233 233 233 233 233 233 233 234 234 234 234 234 235 235 235 236 237 237 238 239 240 240 241 242 242 242 242 241 241 240 241 241 241 241 242 242 243 244 245 246 246 246 247 247 247 247 249 250
276 275 273 271 269 268 267 265 263 261 259 257 256 256 256 256 255 253 251 249 248 248 247 246 245 245 244 244 243 244 244 243 241 241 239 238 236 234 233 233 233 233 232 232 232 232 232 233 233 233 233 233 234 234 235 236 236 237 238 239 239 240 240 241 241 242 241 240 240 239 239 240 240 240 241 241 241 241 243 244 244 244 245 244 244 245 247 248
276 274 272 271 269 267 266 265 264 263 261 258 256 255 254 254 254 254 252 249 247 247 246 245 244 244 243 243 242 242 244 243 241 241 240 238 237 235 234 233 233 232 232 231 231 232 232 232 233 233 233 233 233 234 234 235 235 236 237 238 239 240 240 240 241 241 240 239 238 237 237 238 239 239 239 240 240 241 241 242 243 243 243 243 243 244 246 247
275 273 272 270 268 266 265 264 263 263 262 260 258 256 254 253 252 252 251 250 248 246 245 245 244 243 242 242 241 240 242 242 240 240 240 238 237 235 234 233 233 232 231 231 231 231 232 232 232 232 232 233 233 233 233 234 235 236 237 238 239 240 240 239 239 240 239 238 237 236 236 237 237 237 238 238 239 240 240 241 241 242 242 243 244 244 245 246
273 272 271 269 267 265 264 263 262 262 261 260 259 258 256 254 252 251 250 249 248 246 244 243 243 242 241 240 240 240 240 241 239 239 239 238 237 235 234 233 232 232 231 230 230 230 230 231 231 231 231 232 233 233 233 233 234 236 237 237 238 239 239 238 238 238 238 237 235 235 234 235 236 236 237 237 238 238 239 239 240 241 241 242 243 244 244 246
273 271 269 268 267 265 264 263 262 261 260 259 258 257 256 255 254 252 250 249 247 246 244 242 241 241 241 240 239 239 240 239 238 238 238 237 236 235 234 233 232 232 231 230 229 229 230 230 230 231 231 232 232 232 232 232 233 235 235 236 237 237 237 237 236 236 236 235 234 234 234 233 234 234 235 236 236 237 237 238 239 240 241 241 242 243 244 245
276 273 270 268 266 265 264 263 262 262 260 258 257 256 255 254 254 252 251 249 247 246 244 242 240 239 240 240 239 238 238 238 237 236 237 237 236 234 233 232 232 232 231 230 229 229 229 230 230 230 230 231 231 231 232 232 233 234 234 235 236 236 236 236 235 235 234 233 233 233 233 233 233 232 232 233 234 235 236 237 237 238 239 240 242 243 245 246
277 274 271 268 266 264 263 262 261 261 260 258 256 255 253 253 252 252 251 250 248 245 244 242 240 238 237 238 239 238 237 237 236 234 235 236 235 234 233 231 231 232 232 231 229 229 229 229 229 230 230 230 231 231 231 232 232 233 233 234 234 235 235 235 235 234 233 232 231 231 231 232 232 231 230 231 233 234 235 236 237 238 239 240 242 243 245 246
277 273 271 268 266 263 261 260 259 259 258 257 255 254 252 251 251 250 249 249 248 246 244 242 240 238 235 236 239 238 235 236 235 233 233 234 235 234 233 231 231 231 231 231 230 229 228 228 229 229 229 230 230 230 231 231 232 233 233 234 234 234 235 235 234 233 232 231 230 230 230 231 232 231 231 231 233 236 238 238 238 239 240 241 243 244 246 247
278 274 270 267 265 262 260 258 256 256 255 255 254 252 251 250 249 249 248 247 247 246 244 242 240 238 234 234 237 237 235 235 234 233 232 233 234 234 233 231 230 230 231 231 230 229 228 227 227 227 228 229 229 229 230 231 232 232 233 233 234 234 234 234 234 233 231 229 228 228 229 230 230 231 230 228 228 232 235 238 239 239 241 242 243 245 247 248
278 274 270 266 263 261 259 257 255 253 252 252 251 250 249 248 248 247 247 246 245 245 243 241 240 238 235 234 236 235 234 235 234 232 231 232 233 233 232 231 230 229 230 230 230 229 228 227 226 226 226 227 227 228 230 231 232 232 233 233 233 233 232 233 233 232 230 228 227 227 227 227 227 228 228 226 223 222 225 231 235 238 241 243 245 247 248 250
278 274 270 266 263 261 258 256 254 252 250 249 248 248 247 247 246 246 245 244 243 243 242 240 239 238 236 235 234 233 233 234 234 232 230 230 231 231 231 230 229 228 228 229 229 229 228 227 226 225 225 225 226 228 229 231 232 232 233 232 233 232 231 231 230 230 230 227 226 227 226 226 226 226 226 226 224 222 223 228 235 241 245 245 245 247 249 250
277 273 270 266 263 260 258 256 254 251 249 247 246 245 245 245 244 244 244 243 241 240 240 239 238 237 236 235 234 232 231 232 233 231 229 229 229 230 230 229 228 227 227 227 228 228 227 226 226 225 224 224 225 227 228 230 230 231 231 230 230 230 229 229 230 230 229 228 227 227 227 225 226 226 226 227 226 225 226 228 230 234 241 244 244 244 246 248
277 273 270 267 264 261 258 256 254 252 250 248 246 244 243 243 243 243 242 242 240 239 238 238 236 236 236 236 234 232 230 230 231 230 228 228 228 229 229 228 228 227 226 226 227 227 227 227 226 226 225 224 224 225 226 227 227 228 228 228 229 229 229 229 230 230 230 229 228 227 226 225 225 226 227 227 226 225 226 225 221 219 225 238 245 246 247 250
278 275 272 269 266 263 260 258 256 254 252 250 248 246 244 242 242 241 241 240 239 237 236 236 235 234 234 235 234 231 229 228 229 229 228 227 227 227 228 227 227 227 226 225 226 226 226 226 226 225 224 223 222 223 223 223 224 226 226 227 228 229 228 228 229 230 229 228 228 227 226 224 224 225 227 228 227 225 224 223 219 215 215 227 244 252 256 260
280 277 274 270 267 265 262 260 258 257 255 253 252 250 247 245 243 242 241 239 238 236 235 234 233 232 233 234 234 231 228 226 227 227 227 226 226 226 226 226 226 226 225 225 224 225 226 225 225 224 223 221 220 220 221 221 223 224 225 226 228 227 227 226 227 229 229 229 228 227 226 224 223 224 226 228 227 225 224 223 221 216 214 220 230 237 241 246
281 278 274 271 269 266 264 262 260 258 256 255 254 252 251 249 246 244 242 240 238 236 234 233 232 231 231 232 232 230 227 225 225 225 225 225 225 224 225 225 225 224 224 224 224 225 226 225 224 224 223 222 221 220 220 221 222 224 225 226 227 227 225 225 225 226 228 228 228 228 227 225 224 224 225 227 228 226 223 223 223 219 217 221 224 219 217 217
282 279 275 273 270 268 266 264 262 259 257 255 254 253 251 250 248 245 243 241 238 236 234 232 231 230 230 231 230 229 227 224 223 223 224 224 224 223 223 223 223 223 223 222 223 224 224 224 224 224 223 223 222 222 221 222 223 224 225 226 227 226 224 224 224 225 226 227 227 228 228 227 225 224 225 227 227 227 223 221 222 221 219 221 225 224 216 213
283 280 277 274 272 270 268 266 263 260 257 256 254 252 250 249 247 244 242 240 237 235 233 231 230 229 229 229 229 228 226 224 222 222 222 223 223 222 222 222 222 222 221 220 221 221 221 222 222 223 223 223 222 222 222 222 223 224 225 225 226 225 224 223 224 225 225 225 225 227 228 227 227 225 225 226 226 226 224 220 219 222 222 220 221 223 219 215
284 281 279 277 275 272 270 267 264 261 259 256 253 250 248 246 243 240 238 236 233 232 231 230 229 228 228 228 227 227 225 223 221 220 221 222 222 222 221 220 220 220 220 219 219 220 219 220 221 222 221 221 221 221 221 221 221 222 224 224 224 224 223 222 222 224 224 224 224 225 227 228 228 226 226 226 226 226 226 223 220 220 223 221 219 219 217 215
285 283 281 279 276 274 271 268 264 261 258 255 251 248 245 242 238 236 234 231 228 228 227 227 226 226 227 226 226 225 224 222 220 219 219 220 221 221 220 219 218 218 219 218 218 218 217 219 222 223 221 220 220 220 221 221 221 221 222 223 223 223 222 220 221 223 223 224 224 225 226 226 227 227 227 227 226 226 227 225 222 220 222 224 222 221 219 217
287 285 283 279 277 275 271 267 263 259 255 251 248 244 242 239 235 231 230 226 223 223 223 222 222 223 224 224 224 223 222 220 218 217 217 218 219 219 219 219 217 217 218 218 219 218 216 219 222 222 223 222 221 220 221 221 221 221 222 223 223 222 221 220 220 222 222 224 224 224 225 225 226 228 228 228 228 227 227 227 225 223 223 224 225 225 222 222
291 288 285 281 279 275 270 266 261 256 252 247 244 240 237 234 230 227 226 221 218 219 219 217 217 219 221 221 221 221 220 219 217 215 216 216 217 217 217 217 216 216 217 217 218 217 216 220 221 222 222 222 222 221 221 222 221 221 223 223 222 221 221 220 221 221 221 221 223 224 225 224 225 227 228 228 229 228 228 228 227 226 225 224 226 226 224 225
294 290 286 282 279 274 269 264 259 253 248 242 238 234 231 229 225 222 221 217 214 215 215 214 214 216 218 218 218 218 218 217 214 213 214 215 215 216 216 216 215 214 215 216 215 214 215 219 220 221 221 220 220 221 221 222 221 221 222 223 222 221 221 221 221 221 220 221 223 224 225 224 224 227 228 228 229 229 229 228 227 227 226 225 225 226 225 224
297 292 288 284 279 273 267 262 255 248 242 236 231 228 225 223 220 217 216 214 212 213 212 210 211 214 215 215 216 217 217 216 213 212 213 213 214 214 215 215 214 212 214 215 213 212 214 217 218 219 220 220 220 219 220 220 220 221 223 223 222 221 221 221 221 220 220 221 222 224 225 225 224 226 228 229 229 229 229 228 227 227 227 226 225 225 224 224
301 297 293 289 283 276 268 260 251 243 236 231 226 222 219 217 215 213 211 210 210 210 208 207 209 211 212 213 214 215 215 214 212 212 213 213 213 213 214 214 214 213 213 214 212 213 216 216 217 219 220 221 222 222 222 220 220 222 223 224 223 223 222 221 221 221 221 221 222 223 225 226 225 226 228 229 230 229 229 228 227 228 228 227 226 225 225 224
306 303 300 295 288 280 269 259 248 237 229 224 219 215 213 211 209 208 208 208 207 206 205 204 206 209 210 211 212 213 213 212 211 212 212 212 213 214 214 215 215 215 216 216 212 214 217 217 217 218 219 221 222 223 224 223 223 224 224 224 225 225 224 224 223 223 223 223 223 223 225 226 227 227 228 230 231 230 230 229 228 229 229 228 228 228 226 226
311 307 302 295 288 279 269 257 245 232 222 216 211 208 206 204 203 204 206 206 205 204 202 201 204 206 208 209 211 211 210 209 209 210 210 211 212 212 213 214 214 213 214 215 214 215 217 217 218 219 220 222 223 223 224 225 226 227 227 226 226 226 226 226 225 225 225 225 223 224 224 225 226 227 228 230 231 231 230 230 229 229 230 230 230 230 228 227
312 306 299 292 284 276 267 256 243 229 215 207 203 202 201 200 200 201 202 204 203 202 200 199 202 204 206 207 209 210 209 208 208 208 208 209 210 211 212 212 213 212 212 212 213 215 217 217 219 221 222 224 224 224 224 224 224 225 225 225 225 225 224 224 223 223 224 223 221 223 223 223 225 225 228 230 231 230 230 230 230 230 230 231 232 231 229 227
311 304 298 293 285 275 263 250 236 222 210 202 197 195 197 199 199 200 202 201 199 199 199 199 200 203 204 205 207 207 208 208 208 207 207 207 209 211 211 212 212 213 214 213 212 214 215 215 217 219 222 225 225 225 225 225 225 224 224 223 223 223 222 222 222 221 222 220 218 220 220 220 222 223 226 230 230 230 230 230 231 231 230 231 232 232 230 228
313 308 307 307 297 279 257 239 225 213 203 196 194 192 193 195 197 201 201 197 195 197 197 197 199 201 202 204 205 205 206 207 208 207 206 206 207 208 209 210 211 211 212 213 213 213 212 213 215 217 219 222 224 224 225 225 226 226 226 225 224 223 222 222 221 221 221 219 218 219 218 218 220 222 226 229 229 230 230 230 231 231 230 231 232 232 231 230
323 325 327 325 312 284 249 224 213 206 196 190 189 191 191 193 196 198 196 193 194 195 195 195 198 200 201 202 203 204 204 205 206 207 206 207 208 208 208 208 209 209 211 212 213 213 212 212 214 216 217 219 220 221 223 224 224 225 225 225 224 223 222 221 220 220 221 220 219 220 219 218 220 224 228 229 229 229 230 230 230 231 230 230 232 233 232 230
343 344 340 334 320 283 232 202 194 195 192 187 186 189 192 194 193 192 190 191 193 194 194 195 197 199 200 200 201 202 203 205 206 205 206 207 208 209 209 209 208 209 210 210 211 212 211 212 214 215 217 218 219 220 221 222 223 224 224 223 222 221 221 221 219 219 220 219 219 220 220 219 220 224 228 228 228 228 228 229 229 229 229 230 231 232 232 230
357 353 346 341 331 255 188 177 177 182 185 185 185 187 190 191 188 185 185 188 191 192 193 194 195 197 198 199 200 201 202 204 205 205 205 206 207 208 209 209 209 209 210 210 210 210 210 212 214 215 216 218 219 220 221 221 222 224 224 223 223 221 220 220 218 217 218 218 217 219 219 218 220 224 227 227 227 227 228 229 229 229 229 230 231 232 232 231
5 357 353 359 20 128 143 153 161 169 175 179 181 181 182 182 181 180 182 185 188 189 190 192 194 196 196 197 199 200 201 203 204 205 205 205 206 208 209 209 210 210 210 211 210 209 209 212 215 216 218 219 220 221 221 221 222 222 222 223 224 224 223 222 219 217 217 217 216 218 218 218 220 224 226 227 228 228 229 230 231 231 231 231 232 233 233 232
10 4 9 27 70 113 127 138 147 157 162 167 172 171 171 172 174 176 179 180 182 185 187 190 192 193 194 196 198 200 201 202 203 204 205 205 206 208 209 210 211 211 211 211 211 209 209 212 215 217 219 220 221 221 221 221 221 221 220 219 220 220 221 222 220 217 217 216 216 218 218 219 221 225 226 227 228 229 229 230 231 231 232 233 233 234 235 234
19 20 33 51 83 105 117 129 138 148 154 159 164 164 164 167 171 174 176 176 177 180 184 187 189 191 193 195 197 199 200 201 202 204 204 205 206 207 208 209 210 211 212 211 210 210 210 212 214 216 218 220 221 222 222 221 221 220 219 219 218 216 216 216 216 215 215 215 216 218 219 220 223 226 227 228 229 230 231 231 231 231 232 233 233 234 235 234
37 43 51 66 90 104 114 126 133 141 147 152 156 159 162 167 170 172 173 174 175 177 181 184 186 188 191 193 196 198 200 201 202 203 204 205 206 207 208 208 209 210 210 209 208 209 210 213 215 216 218 219 219 219 220 220 221 222 221 221 221 219 217 216 214 213 213 212 213 215 218 220 223 226 227 227 228 230 231 232 232 232 232 232 233 233 234 234
55 60 66 81 99 110 119 128 135 141 146 151 155 158 161 165 167 169 171 172 174 176 178 180 183 185 188 191 194 196 199 201 202 203 204 205 206 207 207 208 209 209 209 208 207 208 210 212 215 217 219 220 222 223 223 223 223 223 223 223 222 221 221 220 217 215 214 213 213 214 216 219 222 226 226 226 227 229 230 232 232 232 232 232 233 233 234 234
67 73 80 93 106 117 126 132 137 142 146 149 153 155 159 163 166 168 170 172 173 175 176 177 179 183 186 189 191 194 197 200 202 203 204 205 206 206 207 208 208 207 206 205 205 206 209 211 213 216 219 221 224 227 228 228 228 227 225 224 223 221 220 220 218 216 215 215 215 216 217 219 222 226 226 225 226 227 229 231 231 232 232 232 233 233 234 235
70 79 89 100 111 122 128 132 137 141 144 147 150 153 158 162 165 167 169 171 172 173 174 175 177 180 183 186 189 191 194 197 200 202 203 204 204 205 206 206 206 205 204 204 205 206 207 209 211 213 216 218 220 220 221 223 225 225 225 224 223 221 220 219 217 216 215 215 216 217 218 219 222 226 227 225 225 227 228 230 231 231 232 232 232 233 234 234
71 81 91 101 112 122 128 132 137 140 144 147 149 152 156 160 162 165 167 168 169 170 171 173 175 178 181 184 186 189 191 194 197 199 201 202 202 202 202 202 203 203 204 204 206 207 208 209 211 213 215 217 218 218 217 217 217 218 219 220 220 219 219 218 216 215 214 214 215 217 218 219 221 224 226 225 225 226 228 229 231 232 232 232 233 233 233 232
73 83 93 101 112 121 128 133 138 141 144 147 149 151 154 157 159 162 164 165 165 167 169 172 174 177 179 182 184 187 189 191 193 196 198 198 198 198 199 199 200 202 203 205 207 209 210 211 213 214 216 219 219 219 218 218 217 216 216 217 218 217 216 216 216 215 214 214 215 216 218 220 221 223 225 224 224 226 227 229 231 232 233 233 233 233 232 231
76 85 95 104 111 118 126 132 137 140 143 147 149 150 152 154 156 158 160 162 164 166 169 171 174 176 178 180 183 185 187 188 190 192 194 195 195 195 195 197 199 200 202 204 207 209 211 212 214 215 217 219 220 221 221 221 220 219 218 218 217 217 215 214 214 213 212 214 215 215 217 219 221 222 224 224 223 224 226 228 230 231 231 231 231 231 231 230
87 92 101 108 112 116 122 128 133 136 140 144 146 148 150 152 154 156 159 162 164 167 169 171 173 176 178 180 182 183 185 186 187 188 190 191 192 192 193 195 197 198 201 203 206 209 210 212 214 216 218 219 220 221 222 222 221 221 221 220 220 219 217 216 215 213 213 213 214 214 216 219 221 222 224 224 223 223 223 225 226 227 228 229 229 229 229 229
102 105 109 114 117 120 124 127 131 134 138 141 143 147 150 152 154 157 159 162 164 166 169 171 173 175 178 179 181 182 183 184 185 186 187 188 190 192 193 194 196 197 199 202 205 207 209 211 214 216 218 218 219 220 221 221 222 222 222 221 221 221 220 219 218 216 215 214 213 214 216 218 220 222 223 224 223 222 222 222 223 225 226 226 226 227 227 228
111 114 116 119 121 123 126 128 132 136 140 143 145 148 151 153 156 158 160 163 164 165 168 170 172 174 177 179 181 182 183 184 185 186 186 187 189 192 194 195 196 198 199 202 204 206 208 210 213 215 216 217 218 220 220 220 221 221 222 222 222 222 221 220 219 218 217 216 215 214 214 216 219 221 223 224 223 222 221 220 220 222 223 224 225 226 226 227
Height
10629 10628 10627 10626 10626 10625 10625 10625 10625 10625 10625 10626 10626 10627 10627 10628 10628 10629 10630 10631 10632 10632 10633 10635 10637 10638 10639 10640 10642 10643 10646 10650 10653 10655 10654 10654 10663 10671 10675 10680 10683 10685 10687 10689 10691 10694 10696 10699 10702 10706 10709 10712 10715 10719 10722 10726 10729 10733 10736 10740 10743 10744 10745 10746 10748 10750 10756 10766 10772 10776 10780 10781 10783 10784 10785 10789 10793 10797 10800 10802 10803 10802 10803 10804 10806 10808 10809 10810
10622 10621 10620 10619 10618 10617 10617 10617 10617 10618 10618 10619 10619 10620 10620 10621 10622 10623 10623 10624 10626 10626 10628 10630 10631 10632 10633 10634 10636 10638 10640 10643 10646 10647 10645 10650 10659 10663 10666 10673 10675 10677 10679 10683 10685 10688 10691 10694 10697 10700 10703 10706 10709 10713 10716 10720 10723 10726 10729 10733 10735 10736 10738 10739 10741 10746 10753 10763 10768 10772 10775 10776 10778 10778 10782 10785 10788 10792 10795 10798 10798 10798 10799 10800 10801 10803 10804 10805
10614 10613 10612 10611 10611 10610 10609 10609 10609 10610 10610 10611 10612 10612 10613 10614 10615 10616 10617 10618 10619 10620 10622 10623 10625 10627 10628 10629 10630 10632 10635 10636 10639 10639 10640 10646 10651 10655 10660 10666 10669 10670 10673 10677 10680 10683 10687 10690 10693 10695 10698 10701 10704 10707 10711 10715 10717 10720 10724 10726 10727 10730 10732 10732 10736 10743 10751 10759 10763 10767 10769 10770 10773 10774 10777 10781 10784 10787 10790 10792 10793 10794 10796 10797 10798 10799 10800 10801
10607 10606 10605 10604 10603 10602 10602 10601 10602 10602 10602 10603 10603 10604 10606 10606 10607 10608 10610 10611 10612 10614 10615 10617 10619 10621 10622 10623 10625 10627 10628 10630 10632 10632 10634 10639 10644 10650 10654 10659 10662 10663 10667 10671 10675 10679 10683 10685 10688 10691 10693 10696 10699 10702 10706 10709 10711 10715 10717 10718 10721 10723 10724 10728 10734 10740 10747 10755 10758 10761 10763 10765 10768 10769 10772 10776 10779 10782 10784 10786 10788 10791 10793 10794 10795 10795 10796 10797
10599 10598 10597 10596 10595 10594 10593 10593 10594 10594 10594 10595 10596 10596 10597 10598 10600 10601 10602 10604 10605 10607 10608 10611 10613 10614 10615 10617 10619 10621 10621 10624 10626 10626 10628 10633 10638 10644 10647 10651 10655 10657 10661 10666 10670 10674 10677 10680 10683 10686 10689 10691 10694 10697 10701 10702 10706 10710 10711 10713 10716 10717 10719 10725 10731 10736 10743 10749 10752 10755 10757 10759 10762 10764 10767 10770 10774 10777 10779 10781 10784 10787 10789 10790 10791 10791 10792 10793
10591 10590 10589 10587 10587 10586 10585 10585 10585 10586 10586 10586 10588 10588 10589 10591 10591 10593 10595 10596 10598 10599 10601 10604 10606 10608 10609 10610 10614 10615 10615 10619 10620 10618 10622 10627 10631 10637 10641 10644 10647 10651 10656 10660 10665 10668 10671 10674 10677 10681 10683 10686 10689 10692 10696 10698 10702 10705 10706 10708 10710 10711 10717 10722 10726 10731 10738 10743 10747 10750 10751 10754 10756 10759 10762 10765 10770 10772 10774 10776 10780 10782 10784 10785 10785 10786 10787 10789
10582 10581 10580 10579 10578 10577 10576 10575 10576 10576 10577 10577 10579 10579 10581 10582 10583 10585 10586 10588 10590 10591 10594 10596 10599 10601 10601 10604 10607 10609 10610 10612 10612 10612 10616 10621 10625 10630 10634 10637 10640 10645 10650 10655 10659 10661 10664 10668 10672 10675 10678 10682 10685 10688 10692 10695 10698 10700 10701 10702 10704 10708 10714 10718 10722 10727 10732 10737 10741 10744 10746 10748 10750 10754 10757 10761 10765 10767 10769 10772 10775 10778 10780 10780 10779 10781 10783 10785
10572 10571 10570 10569 10568 10567 10566 10566 10566 10566 10567 10568 10569 10570 10572 10573 10575 10576 10577 10580 10582 10583 10586 10588 10591 10593 10594 10598 10601 10604 10604 10603 10605 10607 10611 10616 10620 10624 10627 10631 10634 10639 10644 10648 10651 10654 10658 10663 10667 10670 10674 10678 10680 10684 10688 10691 10693 10695 10695 10697 10700 10704 10709 10714 10718 10722 10727 10732 10735 10738 10740 10742 10745 10749 10752 10756 10760 10762 10765 10767 10770 10773 10774 10774 10774 10777 10779 10781
10561 10560 10559 10559 10558 10557 10556 10555 10555 10556 10556 10558 10559 10561 10562 10564 10565 10566 10568 10571 10573 10575 10578 10580 10584 10585 10587 10591 10594 10598 10596 10593 10600 10604 10606 10610 10613 10617 10621 10625 10629 10633 10637 10641 10645 10649 10653 10657 10660 10663 10669 10673 10676 10681 10684 10687 10689 10689 10690 10694 10697 10700 10706 10711 10714 10717 10722 10726 10730 10732 10734 10737 10740 10744 10747 10751 10754 10757 10760 10762 10765 10768 10768 10769 10770 10772 10774 10777
10550 10548 10547 10547 10546 10546 10545 10545 10545 10544 10545 10547 10548 10550 10552 10554 10555 10556 10559 10561 10564 10566 10569 10572 10576 10577 10580 10583 10587 10591 10586 10586 10595 10598 10599 10603 10606 10610 10614 10618 10622 10626 10630 10634 10638 10642 10645 10648 10653 10658 10664 10668 10672 10677 10680 10683 10684 10684 10687 10690 10693 10696 10702 10707 10709 10712 10717 10721 10724 10726 10729 10732 10734 10739 10743 10746 10750 10752 10755 10757 10761 10763 10763 10764 10765 10767 10770 10773
10539 10537 10535 10534 10533 10533 10533 10533 10533 10533 10534 10535 10537 10538 10541 10543 10545 10547 10549 10551 10555 10556 10560 10564 10566 10569 10572 10576 10581 10581 10576 10581 10589 10591 10593 10596 10599 10603 10607 10612 10616 10619 10622 10627 10631 10635 10637 10642 10650 10655 10660 10664 10668 10672 10675 10678 10679 10679 10683 10686 10688 10693 10698 10701 10703 10707 10712 10716 10719 10721 10725 10727 10729 10734 10738 10742 10745 10747 10750 10753 10756 10757 10758 10759 10760 10763 10766 10769
10527 10525 10523 10522 10521 10520 10520 10520 10520 10520 10521 10522 10524 10526 10529 10532 10533 10536 10538 10541 10545 10547 10551 10554 10557 10561 10564 10570 10573 10568 10568 10576 10581 10584 10587 10589 10592 10596 10601 10605 10610 10613 10616 10620 10624 10628 10632 10639 10645 10649 10655 10659 10662 10667 10671 10673 10673 10675 10678 10681 10684 10689 10693 10695 10698 10703 10707 10711 10714 10717 10720 10722 10724 10729 10733 10736 10739 10742 10745 10748 10751 10751 10752 10754 10756 10759 10762 10765
10513 10511 10510 10508 10507 10506 10506 10506 10506 10507 10508 10509 10511 10513 10517 10519 10521 10525 10527 10530 10534 10538 10541 10544 10548 10551 10557 10565 10560 10555 10565 10570 10571 10577 10580 10582 10586 10590 10595 10600 10604 10606 10610 10614 10618 10623 10629 10635 10639 10644 10650 10652 10657 10663 10666 10666 10668 10670 10673 10677 10681 10686 10688 10691 10694 10698 10702 10706 10710 10712 10715 10717 10719 10724 10728 10732 10736 10738 10741 10744 10745 10746 10748 10750 10753 10756 10759 10762
10498 10496 10494 10493 10492 10491 10491 10490 10491 10492 10493 10494 10496 10499 10503 10505 10508 10512 10516 10518 10522 10528 10531 10534 10539 10542 10551 10556 10544 10547 10559 10559 10561 10569 10573 10577 10581 10585 10589 10594 10597 10601 10604 10608 10613 10618 10624 10629 10634 10639 10644 10647 10653 10657 10658 10660 10662 10665 10670 10674 10678 10681 10683 10687 10690 10694 10698 10702 10706 10708 10710 10712 10715 10720 10725 10730 10735 10737 10739 10740 10740 10742 10745 10748 10750 10753 10756 10759
10482 10480 10478 10476 10475 10475 10474 10474 10474 10476 10478 10479 10481 10484 10488 10491 10494 10498 10503 10507 10510 10516 10520 10523 10529 10533 10543 10543 10532 10540 10550 10548 10554 10563 10569 10573 10575 10579 10583 10587 10592 10595 10599 10603 10609 10613 10618 10623 10628 10633 10638 10643 10648 10650 10652 10655 10658 10662 10666 10670 10674 10677 10680 10683 10686 10689 10693 10698 10701 10703 10705 10708 10711 10716 10722 10727 10732 10735 10736 10735 10736 10740 10742 10744 10746 10749 10753 10756
10465 10462 10460 10458 10457 10456 10456 10455 10456 10459 10461 10463 10465 10468 10472 10476 10480 10484 10489 10495 10499 10504 10508 10513 10519 10524 10532 10530 10522 10531 10540 10541 10548 10557 10564 10566 10568 10572 10575 10580 10586 10589 10593 10598 10603 10608 10613 10617 10622 10627 10632 10637 10641 10644 10648 10651 10655 10659 10661 10666 10670 10672 10675 10678 10681 10684 10688 10693 10696 10697 10700 10704 10707 10713 10717 10720 10724 10727 10728 10729 10733 10737 10739 10741 10744 10747 10751 10755
10446 10443 10441 10439 10437 10437 10437 10436 10437 10439 10442 10445 10448 10452 10456 10459 10464 10469 10474 10481 10487 10491 10495 10502 10509 10514 10520 10517 10512 10522 10531 10534 10541 10550 10556 10558 10561 10565 10568 10574 10579 10583 10588 10592 10597 10602 10607 10612 10617 10621 10626 10631 10636 10641 10644 10647 10652 10655 10658 10662 10663 10665 10670 10672 10676 10680 10683 10688 10691 10692 10696 10700 10704 10708 10711 10714 10717 10720 10723 10727 10733 10737 10737 10737 10740 10744 10748 10752
10426 10423 10421 10419 10417 10417 10416 10417 10418 10420 10422 10426 10430 10434 10438 10442 10447 10452 10458 10466 10473 10479 10484 10492 10499 10503 10506 10505 10505 10513 10521 10527 10533 10541 10548 10551 10554 10558 10562 10568 10572 10577 10582 10586 10592 10597 10602 10607 10610 10614 10621 10628 10633 10637 10641 10644 10647 10649 10651 10654 10654 10658 10663 10667 10672 10676 10680 10684 10686 10689 10693 10697 10700 10702 10706 10709 10712 10717 10722 10727 10731 10735 10735 10733 10735 10740 10744 10748
10406 10403 10401 10399 10397 10397 10396 10396 10397 10400 10402 10405 10409 10415 10420 10425 10430 10436 10442 10449 10459 10468 10473 10481 10486 10490 10494 10495 10497 10502 10511 10518 10524 10531 10539 10544 10548 10552 10556 10562 10567 10571 10576 10582 10587 10592 10597 10600 10605 10613 10620 10625 10629 10633 10635 10638 10640 10640 10643 10645 10647 10653 10659 10665 10670 10673 10677 10680 10682 10685 10689 10694 10695 10697 10701 10703 10708 10714 10718 10722 10725 10728 10732 10732 10732 10737 10742 10746
10385 10382 10381 10379 10377 10377 10377 10377 10378 10380 10383 10385 10389 10396 10402 10407 10413 10420 10426 10434 10446 10455 10460 10466 10472 10477 10482 10484 10485 10491 10500 10508 10515 10523 10531 10536 10541 10545 10550 10556 10561 10566 10572 10577 10582 10586 10590 10595 10603 10611 10615 10619 10623 10625 10628 10630 10631 10633 10637 10640 10644 10650 10656 10662 10666 10669 10672 10675 10677 10680 10684 10689 10690 10692 10696 10700 10705 10710 10712 10716 10720 10724 10729 10731 10734 10739 10744 10748
10367 10364 10362 10359 10358 10358 10358 10359 10360 10362 10366 10368 10371 10377 10384 10389 10396 10404 10411 10419 10430 10438 10445 10452 10458 10464 10470 10472 10474 10480 10490 10499 10507 10515 10522 10527 10533 10538 10544 10550 10556 10562 10567 10571 10576 10580 10584 10592 10599 10603 10607 10611 10614 10616 10619 10622 10624 10627 10632 10636 10640 10646 10653 10658 10661 10664 10668 10670 10674 10677 10680 10683 10686 10689 10692 10696 10701 10705 10708 10711 10716 10723 10727 10729 10734 10741 10744 10748
10350 10346 10343 10341 10341 10340 10341 10342 10343 10346 10349 10350 10354 10361 10366 10372 10381 10390 10396 10404 10415 10424 10432 10439 10444 10453 10458 10459 10463 10470 10481 10490 10497 10505 10513 10519 10526 10533 10538 10544 10551 10556 10559 10565 10571 10575 10581 10589 10592 10596 10601 10603 10605 10609 10613 10617 10620 10623 10628 10632 10635 10642 10650 10653 10655 10659 10663 10666 10670 10673 10676 10679 10682 10685 10688 10692 10697 10701 10705 10708 10713 10719 10723 10726 10730 10734 10737 10741
10334 10330 10327 10326 10325 10325 10325 10327 10329 10331 10333 10335 10340 10346 10351 10357 10366 10375 10382 10391 10401 10410 10419 10425 10432 10440 10443 10446 10453 10462 10472 10480 10487 10497 10506 10512 10520 10526 10532 10538 10544 10548 10554 10562 10566 10571 10577 10582 10586 10591 10594 10595 10600 10605 10609 10613 10617 10620 10625 10628 10631 10638 10644 10647 10651 10655 10658 10662 10666 10669 10672 10675 10678 10682 10685 10689 10693 10696 10700 10704 10708 10712 10717 10721 10724 10729 10733 10736
10320 10315 10313 10312 10311 10311 10312 10314 10315 10317 10319 10323 10327 10332 10338 10343 10351 10360 10367 10376 10386 10396 10405 10411 10419 10427 10431 10435 10445 10454 10463 10469 10478 10490 10498 10505 10512 10519 10526 10532 10537 10543 10550 10555 10559 10564 10569 10574 10579 10582 10584 10589 10595 10599 10604 10609 10613 10617 10620 10622 10627 10633 10638 10644 10648 10650 10653 10658 10661 10664 10668 10671 10674 10678 10682 10685 10688 10691 10695 10700 10704 10707 10711 10715 10720 10724 10729 10731
10307 10302 10300 10299 10299 10298 10299 10301 10302 10304 10308 10310 10315 10320 10325 10330 10338 10346 10352 10361 10373 10383 10390 10398 10409 10416 10418 10425 10437 10445 10452 10460 10471 10483 10491 10498 10506 10513 10519 10524 10531 10539 10543 10547 10552 10556 10562 10568 10571 10571 10576 10583 10589 10594 10599 10603 10607 10611 10614 10617 10622 10627 10633 10641 10643 10644 10648 10652 10656 10660 10664 10668 10671 10675 10678 10681 10684 10687 10690 10696 10701 10704 10706 10710 10715 10719 10723 10726
10294 10291 10289 10288 10286 10287 10287 10288 10290 10292 10295 10297 10302 10308 10312 10317 10325 10333 10339 10349 10361 10369 10376 10386 10396 10400 10404 10416 10428 10433 10441 10452 10462 10473 10482 10491 10498 10505 10511 10517 10526 10532 10536 10540 10544 10549 10557 10562 10562 10565 10572 10577 10582 10589 10593 10597 10602 10605 10608 10611 10616 10622 10629 10635 10637 10639 10643 10648 10654 10658 10660 10663 10667 10671 10674 10677 10680 10683 10686 10692 10697 10701 10702 10706 10710 10713 10717 10720
10283 10281 10279 10276 10276 10276 10277 10278 10279 10281 10284 10287 10291 10296 10300 10305 10313 10321 10328 10338 10350 10358 10364 10373 10381 10387 10395 10406 10413 10419 10433 10443 10452 10464 10474 10482 10489 10497 10505 10512 10519 10525 10530 10535 10538 10545 10554 10554 10556 10562 10568 10572 10578 10584 10588 10592 10596 10600 10603 10606 10611 10617 10623 10628 10631 10634 10640 10646 10651 10653 10655 10660 10664 10668 10671 10673 10676 10679 10683 10688 10692 10696 10698 10701 10704 10707 10712 10715
10273 10271 10269 10267 10267 10267 10267 10268 10269 10271 10275 10279 10283 10287 10291 10295 10303 10311 10317 10328 10340 10344 10349 10358 10368 10376 10383 10392 10401 10412 10426 10433 10443 10458 10466 10472 10481 10490 10497 10504 10511 10519 10525 10529 10534 10543 10547 10547 10552 10558 10562 10569 10574 10578 10583 10586 10590 10596 10598 10600 10606 10612 10618 10623 10626 10631 10638 10642 10645 10647 10652 10658 10661 10664 10666 10669 10672 10676 10680 10683 10687 10689 10692 10696 10698 10701 10706 10708
10265 10263 10260 10258 10259 10259 10259 10259 10261 10263 10267 10271 10274 10278 10282 10288 10295 10302 10308 10319 10326 10328 10336 10349 10359 10365 10372 10383 10395 10407 10415 10422 10435 10448 10455 10464 10475 10482 10490 10497 10505 10513 10517 10520 10527 10535 10539 10541 10547 10551 10556 10563 10567 10572 10576 10578 10585 10590 10590 10594 10601 10607 10614 10619 10623 10629 10635 10638 10641 10645 10650 10654 10657 10659 10662 10666 10670 10673 10675 10677 10680 10683 10686 10690 10693 10695 10699 10701
10257 10254 10252 10251 10251 10251 10251 10252 10253 10256 10259 10262 10266 10270 10275 10281 10288 10294 10301 10309 10313 10319 10330 10343 10351 10357 10365 10378 10389 10397 10405 10415 10430 10440 10447 10458 10467 10475 10483 10491 10498 10505 10508 10512 10521 10529 10531 10534 10539 10545 10551 10556 10560 10563 10566 10572 10580 10582 10583 10590 10597 10604 10610 10615 10620 10626 10631 10635 10639 10643 10646 10650 10653 10656 10659 10663 10665 10667 10668 10671 10675 10678 10681 10684 10686 10688 10692 10695
10250 10247 10245 10244 10243 10244 10244 10245 10246 10249 10252 10255 10259 10264 10269 10274 10281 10288 10293 10297 10303 10311 10322 10333 10342 10350 10360 10372 10381 10388 10398 10413 10427 10435 10442 10453 10461 10469 10477 10484 10491 10497 10501 10508 10520 10526 10525 10528 10536 10542 10548 10552 10555 10558 10562 10569 10575 10576 10581 10588 10595 10601 10607 10612 10617 10623 10628 10633 10636 10640 10643 10646 10650 10653 10655 10658 10659 10661 10663 10667 10671 10673 10674 10677 10679 10682 10687 10692
10243 10241 10239 10238 10237 10237 10237 10238 10240 10243 10246 10249 10253 10258 10263 10269 10275 10279 10283 10288 10295 10303 10314 10326 10336 10343 10353 10363 10371 10380 10394 10410 10421 10429 10439 10451 10460 10468 10476 10482 10489 10496 10503 10511 10519 10520 10519 10526 10534 10539 10543 10546 10550 10555 10561 10568 10571 10573 10579 10587 10593 10599 10604 10610 10616 10622 10627 10629 10634 10638 10640 10643 10647 10650 10651 10653 10654 10656 10660 10664 10666 10667 10668 10672 10675 10679 10684 10689
10238 10236 10234 10233 10232 10231 10231 10232 10234 10237 10240 10244 10248 10252 10257 10263 10267 10271 10277 10283 10289 10297 10309 10320 10328 10336 10346 10356 10364 10375 10388 10402 10412 10422 10434 10444 10452 10461 10469 10476 10484 10493 10500 10507 10512 10512 10515 10524 10530 10534 10539 10542 10548 10554 10560 10566 10569 10573 10579 10585 10590 10595 10602 10610 10616 10620 10622 10626 10633 10635 10637 10641 10643 10645 10647 10647 10648 10652 10656 10658 10660 10662 10665 10668 10671 10675 10680 10685
10234 10232 10230 10229 10227 10227 10227 10228 10230 10233 10236 10239 10243 10247 10252 10256 10260 10266 10271 10277 10284 10294 10305 10314 10322 10330 10340 10350 10360 10372 10386 10398 10406 10416 10427 10437 10447 10455 10462 10471 10480 10486 10491 10498 10505 10508 10515 10523 10528 10532 10537 10541 10546 10552 10556 10560 10563 10567 10573 10578 10584 10591 10599 10605 10609 10614 10617 10623 10629 10630 10633 10637 10638 10642 10642 10640 10643 10648 10650 10653 10655 10658 10662 10665 10667 10670 10675 10679
10231 10229 10227 10225 10224 10224 10224 10224 10226 10229 10232 10235 10238 10243 10247 10252 10257 10261 10265 10273 10284 10294 10303 10311 10318 10326 10336 10346 10356 10368 10383 10394 10402 10411 10423 10435 10444 10452 10461 10469 10476 10482 10489 10495 10501 10505 10511 10519 10523 10528 10534 10538 10542 10547 10551 10554 10557 10561 10566 10571 10578 10585 10591 10597 10602 10608 10611 10617 10622 10623 10629 10633 10634 10636 10635 10633 10638 10642 10645 10648 10650 10654 10659 10661 10662 10665 10669 10673
10228 10226 10224 10223 10222 10222 10222 10223 10224 10227 10229 10233 10236 10240 10244 10250 10254 10258 10265 10275 10284 10290 10298 10307 10314 10322 10332 10342 10353 10366 10379 10390 10399 10410 10421 10429 10437 10445 10455 10462 10470 10479 10486 10492 10497 10500 10505 10512 10517 10523 10527 10531 10536 10541 10545 10548 10552 10558 10563 10569 10575 10580 10587 10592 10598 10603 10607 10612 10616 10619 10624 10627 10628 10629 10628 10629 10634 10636 10640 10643 10645 10650 10654 10657 10658 10661 10664 10667
10227 10224 10222 10221 10221 10221 10221 10222 10223 10225 10228 10231 10235 10239 10243 10246 10251 10257 10268 10277 10282 10287 10295 10302 10310 10319 10329 10339 10352 10365 10377 10386 10396 10407 10418 10425 10432 10441 10449 10457 10467 10474 10479 10486 10491 10495 10502 10509 10513 10516 10520 10524 10530 10535 10537 10541 10548 10554 10559 10565 10570 10576 10582 10586 10591 10597 10602 10608 10613 10616 10619 10622 10624 10625 10624 10626 10629 10632 10635 10637 10641 10645 10649 10653 10654 10654 10656 10660
10225 10223 10221 10221 10220 10220 10220 10221 10223 10225 10228 10230 10234 10237 10241 10245 10251 10260 10269 10275 10280 10286 10293 10300 10308 10318 10329 10340 10352 10363 10374 10383 10393 10404 10414 10422 10431 10440 10448 10456 10463 10468 10474 10481 10486 10491 10499 10504 10506 10510 10515 10519 10524 10528 10532 10539 10546 10550 10554 10559 10565 10570 10575 10579 10586 10594 10599 10604 10609 10612 10615 10619 10621 10621 10619 10620 10623 10626 10629 10633 10637 10640 10644 10647 10647 10647 10651 10656
10225 10223 10222 10221 10220 10220 10220 10221 10223 10225 10228 10231 10234 10238 10244 10250 10256 10263 10269 10275 10280 10287 10294 10301 10309 10318 10329 10340 10351 10361 10371 10381 10392 10403 10411 10419 10428 10437 10445 10452 10458 10463 10470 10476 10481 10486 10493 10497 10500 10505 10509 10514 10519 10525 10531 10538 10543 10545 10551 10557 10560 10565 10570 10575 10583 10589 10593 10599 10604 10606 10610 10615 10616 10614 10612 10614 10617 10621 10625 10629 10632 10636 10639 10641 10641 10643 10647 10651
10225 10223 10222 10221 10221 10221 10221 10222 10224 10226 10230 10234 10238 10243 10249 10255 10261 10266 10271 10276 10282 10289 10296 10303 10310 10319 10330 10340 10349 10359 10369 10379 10390 10400 10408 10417 10426 10433 10440 10447 10454 10460 10466 10471 10477 10483 10489 10493 10497 10502 10506 10512 10519 10525 10530 10535 10539 10543 10549 10553 10557 10563 10569 10573 10579 10584 10588 10594 10599 10601 10605 10609 10609 10605 10605 10609 10613 10618 10623 10626 10629 10632 10634 10635 10637 10641 10643 10647
10225 10224 10223 10223 10222 10222 10222 10223 10225 10228 10231 10235 10240 10246 10252 10258 10263 10268 10272 10278 10285 10291 10297 10304 10312 10321 10330 10339 10348 10358 10368 10378 10388 10397 10406 10415 10422 10430 10438 10445 10452 10458 10462 10469 10475 10480 10485 10489 10494 10500 10506 10511 10517 10522 10526 10531 10534 10539 10543 10547 10552 10558 10563 10568 10574 10580 10584 10590 10594 10597 10601 10603 10602 10600 10602 10607 10611 10615 10619 10622 10625 10627 10629 10632 10635 10638 10639 10643
10227 10226 10225 10224 10224 10224 10225 10226 10228 10230 10233 10237 10242 10248 10253 10259 10264 10268 10274 10280 10286 10293 10299 10305 10313 10321 10330 10339 10348 10357 10366 10376 10385 10394 10403 10412 10419 10428 10436 10442 10448 10453 10459 10466 10471 10476 10482 10487 10492 10497 10502 10507 10514 10518 10522 10526 10529 10534 10538 10542 10546 10551 10556 10561 10567 10572 10577 10584 10589 10593 10596 10597 10596 10596 10599 10604 10608 10613 10616 10618 10620 10622 10625 10628 10631 10633 10635 10638
10228 10227 10227 10227 10226 10227 10227 10229 10231 10233 10236 10240 10245 10249 10254 10260 10265 10271 10277 10282 10288 10294 10301 10307 10315 10323 10331 10339 10348 10357 10365 10374 10383 10392 10400 10407 10415 10424 10431 10437 10443 10448 10455 10462 10467 10474 10480 10484 10489 10494 10498 10503 10508 10511 10516 10521 10525 10531 10536 10540 10544 10549 10552 10555 10560 10564 10570 10576 10580 10583 10587 10590 10590 10591 10594 10600 10605 10609 10612 10614 10615 10618 10621 10624 10626 10628 10631 10634
10230 10229 10229 10229 10229 10229 10230 10231 10233 10235 10238 10241 10245 10250 10256 10262 10268 10274 10279 10285 10291 10296 10302 10309 10316 10324 10332 10340 10348 10356 10365 10374 10382 10390 10397 10405 10413 10421 10427 10433 10438 10445 10453 10460 10466 10472 10476 10481 10486 10491 10495 10501 10505 10509 10515 10521 10526 10530 10533 10536 10541 10546 10549 10554 10559 10563 10567 10571 10574 10577 10580 10583 10584 10585 10590 10596 10602 10605 10607 10609 10611 10614 10617 10620 10622 10624 10626 10629
10233 10231 10231 10231 10231 10232 10233 10234 10236 10238 10241 10245 10249 10254 10259 10265 10270 10276 10281 10287 10292 10298 10304 10310 10317 10324 10332 10339 10348 10356 10365 10374 10382 10389 10396 10403 10411 10418 10424 10430 10436 10443 10451 10456 10461 10466 10472 10478 10484 10489 10495 10500 10505 10511 10517 10521 10525 10528 10530 10534 10539 10543 10546 10551 10556 10560 10565 10569 10572 10574 10576 10579 10581 10582 10586 10593 10597 10600 10602 10604 10606 10609 10612 10615 10618 10621 10623 10626
10236 10235 10234 10234 10235 10236 10236 10238 10240 10243 10246 10249 10253 10258 10263 10268 10273 10278 10284 10289 10294 10300 10306 10312 10318 10325 10332 10340 10348 10356 10364 10372 10379 10387 10395 10402 10409 10416 10422 10428 10434 10441 10446 10450 10455 10461 10468 10474 10480 10485 10491 10495 10500 10506 10511 10515 10520 10524 10527 10530 10534 10538 10542 10546 10551 10556 10561 10564 10567 10570 10572 10575 10577 10578 10582 10589 10593 10595 10598 10599 10601 10604 10607 10611 10614 10617 10620 10624
10240 10239 10239 10239 10239 10240 10241 10243 10245 10247 10250 10254 10257 10261 10266 10271 10277 10282 10287 10292 10297 10302 10308 10314 10320 10327 10334 10341 10349 10356 10363 10370 10378 10386 10393 10400 10407 10414 10420 10426 10432 10437 10443 10448 10454 10460 10466 10472 10477 10482 10486 10490 10496 10501 10505 10508 10512 10516 10520 10523 10528 10533 10538 10543 10548 10551 10555 10559 10562 10565 10567 10570 10572 10574 10577 10583 10588 10591 10593 10595 10597 10600 10604 10607 10611 10614 10617 10621
10244 10244 10244 10244 10245 10246 10247 10248 10250 10252 10256 10259 10262 10266 10270 10275 10280 10285 10290 10295 10300 10305 10311 10317 10323 10329 10336 10342 10349 10355 10362 10369 10377 10385 10392 10398 10405 10411 10418 10424 10429 10436 10443 10449 10455 10460 10466 10471 10475 10480 10484 10488 10494 10497 10500 10504 10507 10510 10514 10518 10523 10528 10533 10538 10542 10546 10551 10554 10556 10559 10562 10565 10568 10570 10573 10578 10583 10587 10589 10592 10594 10597 10601 10604 10607 10610 10614 10616
10249 10249 10249 10250 10251 10252 10253 10254 10256 10258 10261 10264 10267 10270 10275 10279 10284 10289 10294 10299 10303 10308 10313 10319 10325 10331 10337 10343 10349 10356 10363 10370 10377 10384 10391 10398 10404 10410 10417 10423 10430 10436 10443 10449 10454 10459 10464 10469 10473 10477 10482 10486 10490 10494 10498 10501 10505 10508 10511 10515 10519 10524 10528 10532 10536 10540 10545 10547 10550 10555 10558 10560 10562 10565 10569 10574 10579 10582 10585 10588 10591 10594 10597 10600 10603 10606 10609 10611
10254 10254 10254 10255 10257 10258 10260 10261 10263 10265 10268 10271 10273 10276 10280 10284 10288 10293 10297 10302 10307 10312 10317 10322 10328 10334 10339 10344 10350 10356 10363 10370 10376 10383 10390 10397 10404 10410 10416 10422 10429 10436 10442 10447 10452 10457 10461 10466 10470 10475 10479 10483 10487 10491 10495 10498 10502 10505 10508 10512 10516 10521 10525 10528 10532 10536 10539 10542 10546 10550 10552 10555 10559 10562 10566 10570 10574 10578 10580 10583 10586 10589 10592 10595 10598 10601 10604 10606
10258 10258 10259 10260 10261 10263 10265 10267 10269 10270 10273 10276 10279 10283 10285 10288 10292 10296 10301 10305 10310 10316 10321 10326 10331 10337 10342 10347 10353 10358 10364 10370 10376 10382 10389 10396 10403 10409 10415 10420 10426 10432 10438 10443 10448 10453 10458 10463 10467 10471 10476 10481 10484 10487 10491 10495 10497 10500 10504 10509 10513 10518 10522 10525 10529 10532 10535 10538 10541 10544 10548 10552 10555 10558 10562 10565 10569 10573 10576 10578 10581 10584 10586 10590 10593 10596 10599 10602
10261 10263 10264 10265 10266 10268 10270 10272 10274 10276 10278 10280 10283 10287 10290 10293 10297 10300 10305 10309 10313 10319 10324 10329 10334 10339 10345 10351 10356 10362 10368 10373 10379 10384 10390 10395 10401 10407 10412 10418 10423 10428 10434 10439 10443 10449 10455 10460 10464 10468 10473 10477 10480 10483 10487 10490 10493 10497 10502 10506 10510 10513 10517 10521 10524 10527 10530 10533 10536 10540 10544 10547 10550 10553 10557 10560 10563 10567 10570 10573 10576 10578 10581 10585 10588 10592 10595 10598